TimeMDT,TemperatureF,Dew PointF,Humidity,Sea Level PressureIn,VisibilityMPH,Wind Direction,Wind SpeedMPH,Gust SpeedMPH,PrecipitationIn,Events,Conditions,WindDirDegrees,DateUTC
12:53 AM,43.0,18.0,37,29.90,10.0,Calm,Calm,-,N/A,,Overcast,0,2013-04-26 06:53:00
1:53 AM,39.9,19.9,45,29.92,10.0,Variable,4.6,-,N/A,,Clear,0,2013-04-26 07:53:00
2:53 AM,39.9,21.0,47,29.94,10.0,Calm,Calm,-,N/A,,Clear,0,2013-04-26 08:53:00
3:53 AM,42.1,21.9,45,29.94,10.0,Variable,3.5,-,N/A,,Clear,0,2013-04-26 09:53:00
4:53 AM,42.1,23.0,47,29.96,10.0,Calm,Calm,-,N/A,,Clear,0,2013-04-26 10:53:00
5:53 AM,33.1,19.9,59,30.03,10.0,Calm,Calm,-,N/A,,Clear,0,2013-04-26 11:53:00
7:53 AM,36.0,19.9,52,30.10,10.0,Calm,Calm,-,N/A,,Clear,0,2013-04-26 13:53:00
8:53 AM,45.0,21.9,40,30.10,10.0,Calm,Calm,-,N/A,,Clear,0,2013-04-26 14:53:00
9:53 AM,53.1,21.0,29,30.09,10.0,WNW,3.5,-,N/A,,Clear,300,2013-04-26 15:53:00
10:53 AM,61.0,15.1,17,30.06,10.0,Variable,6.9,-,N/A,,Clear,0,2013-04-26 16:53:00
11:53 AM,62.1,10.9,13,30.04,10.0,West,10.4,17.3,N/A,,Clear,280,2013-04-26 17:53:00
12:53 PM,64.0,3.9,9,30.02,10.0,WNW,9.2,27.6,N/A,,Clear,300,2013-04-26 18:53:00
1:53 PM,64.9,1.9,8,30.02,10.0,NW,13.8,24.2,N/A,,Clear,310,2013-04-26 19:53:00
2:32 PM,64.4,10.4,12,30.24,10.0,West,9.2,-,N/A,,Scattered Clouds,280,2013-04-26 20:32:00
2:53 PM,64.9,6.1,10,30.02,10.0,NW,10.4,24.2,N/A,,Scattered Clouds,310,2013-04-26 20:53:00
3:53 PM,66.9,3.0,8,29.99,10.0,West,15.0,29.9,N/A,,Clear,260,2013-04-26 21:53:00
4:53 PM,66.9,1.9,8,29.99,10.0,WNW,18.4,26.5,N/A,,Clear,290,2013-04-26 22:53:00
5:53 PM,64.9,-0.9,7,30.04,10.0,West,12.7,-,N/A,,Clear,280,2013-04-26 23:53:00
6:53 PM,63.0,-0.9,8,30.07,10.0,WNW,6.9,-,N/A,,Clear,300,2013-04-27 00:53:00
7:53 PM,59.0,-0.0,9,30.08,10.0,NNW,5.8,-,N/A,,Clear,340,2013-04-27 01:53:00
8:53 PM,52.0,1.0,12,30.09,10.0,NNE,5.8,-,N/A,,Clear,20,2013-04-27 02:53:00
10:53 PM,39.9,1.0,20,30.13,10.0,Calm,Calm,-,N/A,,Clear,0,2013-04-27 04:53:00
11:53 PM,37.9,1.9,22,30.14,10.0,Calm,Calm,-,N/A,,Clear,0,2013-04-27 05:53:00